Location: Castellar de la Frontera
(36.3200°N, 5.4500°W)
Time: 09:24:46
(UTC+01:00)

ISS - Visible Passes

Search period start: 30 November 2022 00:00
Search period end: 10 December 2022 00:00
Orbit: 411 x 420 km, 51.6° (Epoch: 30 November)

Date Brightness Start Highest point End Pass type
(mag) Time Alt. Az. Time Alt. Az. Time Alt. Az.
01 Dec -1.2 19:28:03 10° N 19:28:14 10° N 19:28:14 10° N visible
03 Dec -2.1 19:26:06 10° NNW 19:28:08 20° NNE 19:28:08 20° NNE visible
04 Dec -1.8 18:37:44 10° N 18:39:43 15° NNE 18:41:41 10° ENE visible
04 Dec -1.5 20:13:28 10° NW 20:14:46 22° NW 20:14:46 22° NW visible
05 Dec -3.7 19:24:41 10° NW 19:27:56 53° NE 19:28:44 41° E visible
06 Dec -2.9 18:36:00 10° NNW 18:39:00 30° NE 18:41:59 10° E visible
06 Dec -1.6 20:12:54 10° WNW 20:15:35 23° SW 20:16:02 22° SW visible
07 Dec -2.7 19:23:38 10° WNW 19:26:49 44° SW 19:29:58 10° SSE visible
08 Dec -3.8 18:34:37 10° NW 18:37:56 90° SSE 18:41:14 10° SE visible
09 Dec -0.5 19:23:31 10° W 19:25:21 14° SW 19:27:12 10° SSW visible
